Temp
22 22 22 21 18 16 18 19 19 18 17 14 14 13 12 12 14 14 11 12 12 11 11 10 10 9 9 8 8 7 8 9 8 8 8 8 8 8 7 7 8 8 7 6 5 5 7 9 9
22 22 22 22 16 17 19 18 17 16 16 16 16 14 13 12 11 11 11 11 11 11 11 10 10 9 9 8 7 8 8 8 8 9 8 7 7 6 7 8 8 7 7 7 7 6 8 8 8
22 22 22 16 16 17 17 18 17 15 15 15 15 12 13 12 11 11 11 11 11 11 11 10 9 9 8 8 8 9 9 9 9 8 8 8 8 7 7 7 7 7 6 6 6 6 6 7 7
22 21 21 18 18 18 18 18 17 14 15 15 15 13 12 11 12 11 11 11 11 11 10 9 9 9 8 8 9 9 9 8 8 8 8 7 7 7 7 6 6 5 5 5 5 5 5 5 6
22 22 17 18 20 20 18 17 16 15 13 15 15 12 10 11 12 11 11 11 11 10 9 9 9 9 10 10 9 9 8 8 8 7 7 7 6 6 5 5 4 4 4 4 4 4 4 4 3
22 21 18 18 20 19 18 17 17 16 15 14 12 11 10 10 11 10 10 10 10 10 9 9 9 9 9 9 8 8 8 7 7 7 6 6 5 5 5 4 4 4 4 3 3 4 3 3 2
20 17 18 21 21 19 18 17 18 19 18 15 13 11 10 10 10 10 10 10 9 9 9 9 8 8 8 8 7 7 7 7 7 6 6 5 5 4 4 4 4 4 3 3 3 2 2 3 3
24 18 21 20 22 20 18 18 17 16 13 13 13 11 10 10 10 10 9 9 9 8 8 8 8 8 7 7 7 7 6 6 5 5 5 5 5 4 4 4 4 3 3 3 3 2 3 2 2
24 19 18 21 20 18 18 18 13 11 11 11 11 10 11 10 10 9 9 8 8 7 8 8 8 8 8 7 6 6 6 6 5 5 5 5 5 5 4 3 3 3 3 2 2 2 2 2 2
21 18 21 21 18 17 16 16 13 12 11 10 10 10 10 10 10 9 9 8 8 8 8 8 7 7 7 6 6 6 6 6 5 4 4 4 4 4 3 2 2 2 2 2 2 2 2 2 1
23 21 20 18 17 17 13 13 13 13 12 10 10 10 10 10 10 9 9 8 8 8 7 7 7 7 7 7 6 6 5 5 5 4 5 4 4 3 3 3 2 1 1 1 1 1 1 1 1
23 21 20 18 16 16 13 12 11 12 11 11 11 12 11 10 9 9 9 8 8 7 8 8 7 7 7 6 6 5 5 5 4 4 4 4 3 2 2 2 2 1 1 0 0 0 0 -0 -0
24 17 15 15 15 13 13 11 11 10 10 10 10 10 9 9 9 9 9 8 8 8 8 8 7 6 5 5 5 5 4 4 4 3 3 3 2 2 1 1 1 -0 -0 -0 -0 -1 -1 -1 -1
24 17 14 13 13 13 12 12 12 11 9 9 9 8 9 9 9 9 8 8 8 8 8 7 6 5 5 4 5 4 4 3 3 3 3 2 2 1 1 0 0 -0 -1 -1 -1 -1 -1 -1 -1
24 16 15 14 13 12 13 13 11 9 10 8 8 8 8 8 8 8 8 8 7 7 6 5 5 5 5 4 4 4 3 3 3 3 2 2 1 1 0 -0 -1 -1 -2 -2 -2 -2 -2 -2 -2
22 20 16 16 15 12 15 12 9 9 11 7 8 8 8 8 8 7 7 7 6 5 5 5 5 4 4 4 4 3 3 3 2 2 2 1 1 0 -0 -1 -1 -2 -2 -2 -2 -2 -3 -2 -2
17 18 21 19 18 15 15 12 9 9 10 6 6 7 7 6 7 6 6 6 5 5 4 5 5 4 4 3 3 3 3 2 2 1 1 0 0 -0 -1 -1 -1 -2 -2 -2 -3 -3 -3 -3 -3
17 19 20 18 16 13 12 11 9 8 7 6 6 5 6 6 6 5 5 5 5 5 5 5 4 4 3 3 3 2 2 2 1 1 1 0 0 -1 -1 -1 -2 -2 -2 -3 -3 -4 -4 -4 -4
19 20 20 16 15 13 12 10 9 8 7 6 5 5 5 6 5 5 5 5 5 5 5 5 4 3 3 3 2 2 1 1 1 1 0 -0 -1 -1 -2 -2 -2 -3 -3 -4 -4 -5 -5 -4 -5
19 19 19 15 15 13 12 10 9 8 8 6 5 5 5 5 5 5 5 5 5 5 5 4 4 3 3 2 1 1 1 0 0 -0 -1 -1 -2 -2 -2 -3 -3 -4 -4 -4 -5 -5 -5 -5 -6
19 19 19 18 12 12 12 11 10 9 8 6 5 5 5 5 5 5 5 5 4 5 5 4 3 3 2 2 1 1 1 0 -0 -1 -1 -1 -2 -2 -3 -3 -4 -4 -4 -5 -5 -5 -6 -6 -6
19 21 22 16 15 14 12 12 11 9 8 6 5 4 4 5 5 5 5 5 4 5 4 3 3 2 2 1 1 -0 -1 -1 -1 -2 -2 -2 -3 -3 -3 -4 -4 -4 -5 -5 -5 -5 -6 -6 -6
21 22 22 18 17 15 12 13 12 10 9 7 5 4 5 6 6 6 5 5 5 5 5 3 3 2 2 1 0 -0 -1 -1 -2 -2 -2 -2 -3 -3 -3 -4 -4 -4 -5 -5 -5 -5 -6 -6 -6
23 24 23 19 17 17 16 16 12 10 11 8 6 5 5 6 6 6 5 5 5 5 5 3 2 2 1 1 0 -1 -1 -2 -2 -2 -2 -3 -3 -3 -4 -4 -4 -5 -5 -5 -5 -5 -6 -6 -6
22 19 18 19 17 16 18 15 11 11 13 8 6 5 5 6 6 6 5 5 6 5 4 3 2 2 1 1 -0 -1 -1 -1 -2 -2 -3 -3 -3 -4 -4 -4 -4 -5 -5 -5 -5 -5 -6 -6 -6
20 18 17 18 17 16 17 14 10 8 8 7 6 6 6 6 6 6 5 6 6 5 4 3 2 1 1 0 -0 -1 -1 -2 -2 -2 -3 -3 -4 -4 -4 -4 -4 -5 -5 -5 -5 -6 -6 -6 -7
22 20 20 19 19 16 12 11 9 8 7 6 6 6 6 7 6 6 5 6 6 5 4 3 2 1 0 -0 -0 -1 -1 -2 -2 -3 -3 -3 -4 -4 -4 -4 -4 -5 -5 -5 -6 -6 -7 -7 -7
22 21 20 17 18 16 15 13 12 7 6 7 6 6 6 7 6 6 6 6 5 4 3 2 2 1 -0 -0 -1 -1 -1 -2 -3 -3 -3 -3 -4 -4 -4 -4 -5 -5 -5 -6 -6 -7 -7 -7 -7
21 21 20 18 17 15 14 14 13 9 8 7 7 6 7 7 6 6 7 5 5 3 3 2 1 0 -0 -0 -1 -1 -2 -2 -3 -3 -3 -4 -4 -4 -4 -5 -5 -5 -6 -6 -7 -7 -8 -8 -8
22 20 19 17 20 15 15 13 12 9 8 7 7 7 7 7 7 7 6 5 4 3 3 2 1 -0 -0 -1 -1 -2 -2 -2 -3 -3 -3 -3 -3 -4 -4 -4 -5 -5 -6 -7 -8 -9 -10 -10 -10
Height
1515 1515 1515 1516 1528 1532 1540 1538 1534 1537 1537 1546 1539 1533 1534 1537 1541 1549 1550 1552 1555 1556 1559 1561 1563 1563 1562 1561 1559 1558 1557 1556 1555 1554 1553 1551 1550 1549 1547 1546 1544 1542 1541 1539 1537 1534 1531 1529 1527
1514 1515 1516 1516 1537 1546 1545 1538 1539 1545 1544 1540 1539 1545 1537 1545 1545 1546 1551 1552 1555 1557 1558 1561 1562 1564 1563 1562 1560 1559 1558 1557 1556 1555 1553 1552 1551 1549 1547 1545 1543 1541 1539 1537 1535 1532 1530 1527 1525
1514 1515 1516 1521 1538 1546 1549 1538 1542 1546 1546 1544 1542 1545 1542 1548 1550 1549 1552 1553 1556 1558 1559 1561 1562 1564 1563 1561 1560 1559 1558 1557 1556 1555 1553 1552 1550 1549 1547 1545 1543 1541 1538 1536 1533 1530 1528 1525 1523
1514 1516 1517 1528 1534 1528 1527 1535 1541 1549 1550 1545 1540 1544 1545 1546 1549 1550 1554 1555 1557 1558 1559 1561 1562 1563 1563 1561 1560 1560 1559 1558 1557 1556 1554 1552 1550 1548 1546 1544 1542 1540 1537 1535 1532 1529 1526 1523 1521
1513 1514 1525 1529 1521 1519 1528 1536 1536 1544 1554 1546 1547 1541 1547 1550 1551 1552 1555 1557 1557 1559 1560 1561 1563 1564 1564 1563 1562 1560 1559 1558 1557 1556 1554 1552 1550 1548 1546 1543 1541 1539 1537 1534 1531 1528 1525 1523 1520
1512 1513 1529 1533 1520 1521 1528 1530 1530 1532 1533 1542 1543 1543 1550 1552 1553 1555 1556 1557 1560 1560 1562 1563 1565 1565 1565 1565 1563 1562 1560 1559 1557 1555 1554 1552 1550 1548 1545 1543 1540 1539 1536 1533 1530 1527 1524 1522 1521
1510 1515 1523 1519 1517 1524 1529 1534 1533 1534 1535 1540 1543 1546 1551 1553 1554 1556 1557 1559 1562 1563 1564 1564 1565 1566 1566 1566 1564 1562 1561 1559 1557 1555 1553 1551 1549 1548 1545 1543 1542 1538 1536 1533 1529 1527 1524 1523 1521
1508 1509 1515 1513 1517 1523 1524 1526 1529 1530 1535 1538 1539 1545 1550 1552 1556 1556 1558 1562 1563 1565 1565 1565 1567 1567 1566 1566 1564 1562 1561 1558 1556 1554 1553 1552 1550 1548 1545 1543 1540 1537 1534 1531 1528 1526 1525 1522 1519
1505 1514 1521 1515 1513 1518 1521 1522 1530 1535 1536 1539 1539 1540 1542 1551 1554 1557 1560 1563 1565 1566 1566 1567 1568 1568 1566 1566 1564 1562 1560 1558 1557 1554 1553 1551 1548 1546 1543 1541 1537 1534 1531 1528 1526 1524 1522 1519 1516
1503 1514 1510 1502 1506 1514 1522 1523 1527 1534 1536 1540 1539 1542 1547 1552 1556 1558 1560 1562 1565 1566 1566 1567 1568 1567 1567 1567 1565 1561 1559 1556 1555 1554 1552 1549 1547 1543 1540 1537 1534 1531 1528 1526 1524 1522 1519 1516 1513
1502 1506 1504 1510 1503 1508 1518 1521 1526 1530 1539 1541 1540 1545 1549 1554 1558 1561 1561 1564 1564 1566 1567 1570 1570 1568 1567 1565 1564 1562 1559 1557 1554 1553 1551 1548 1545 1542 1537 1533 1530 1527 1525 1523 1521 1518 1516 1512 1509
1502 1500 1501 1512 1513 1513 1518 1526 1533 1531 1541 1546 1548 1550 1552 1557 1560 1560 1563 1564 1566 1568 1569 1569 1569 1568 1566 1564 1563 1562 1560 1556 1553 1552 1549 1546 1543 1539 1535 1532 1528 1525 1522 1520 1518 1515 1512 1509 1507
1498 1505 1509 1514 1517 1520 1521 1529 1530 1541 1546 1550 1553 1555 1556 1558 1560 1564 1566 1566 1567 1569 1569 1569 1568 1566 1564 1564 1562 1561 1560 1556 1553 1550 1548 1544 1541 1537 1533 1530 1526 1524 1521 1519 1516 1513 1510 1507 1504
1497 1503 1514 1519 1520 1527 1526 1535 1533 1550 1549 1552 1553 1555 1558 1560 1562 1564 1566 1567 1569 1569 1569 1568 1567 1565 1564 1563 1561 1561 1559 1554 1552 1549 1546 1543 1540 1537 1533 1529 1525 1522 1520 1517 1514 1510 1507 1504 1501
1496 1515 1519 1522 1519 1526 1515 1536 1544 1548 1550 1554 1556 1558 1560 1562 1564 1565 1567 1568 1569 1569 1569 1570 1566 1566 1565 1563 1561 1559 1557 1554 1551 1548 1546 1542 1538 1535 1531 1528 1524 1521 1518 1514 1511 1508 1504 1501 1497
1497 1501 1523 1513 1514 1517 1515 1547 1550 1549 1549 1554 1557 1560 1562 1563 1565 1566 1568 1568 1568 1568 1568 1571 1570 1567 1565 1563 1561 1558 1556 1553 1551 1549 1545 1541 1538 1534 1530 1526 1523 1520 1516 1512 1508 1504 1500 1497 1493
1506 1515 1507 1509 1509 1514 1521 1541 1547 1549 1550 1556 1559 1561 1562 1563 1565 1567 1568 1567 1568 1570 1569 1571 1570 1568 1565 1562 1560 1557 1555 1553 1550 1547 1544 1540 1537 1533 1529 1525 1521 1517 1513 1509 1504 1500 1496 1492 1489
1515 1509 1505 1510 1509 1513 1523 1534 1544 1550 1552 1556 1559 1561 1562 1564 1565 1566 1568 1570 1571 1570 1570 1571 1570 1567 1564 1561 1559 1556 1554 1552 1550 1546 1543 1540 1535 1531 1527 1524 1520 1515 1510 1505 1500 1496 1492 1489 1485
1498 1502 1506 1510 1513 1519 1529 1540 1547 1552 1555 1558 1559 1561 1563 1564 1566 1568 1569 1571 1571 1571 1572 1571 1570 1567 1563 1560 1557 1555 1554 1551 1549 1546 1542 1538 1534 1529 1525 1521 1517 1512 1506 1501 1497 1492 1488 1484 1480
1497 1503 1508 1514 1517 1520 1536 1544 1549 1552 1554 1556 1558 1559 1562 1564 1566 1567 1570 1571 1571 1572 1571 1571 1569 1567 1563 1560 1557 1555 1553 1550 1548 1545 1541 1537 1532 1528 1524 1519 1514 1509 1503 1499 1494 1490 1485 1481 1478
1494 1499 1500 1504 1522 1525 1532 1546 1550 1553 1555 1557 1557 1559 1559 1563 1566 1568 1570 1572 1572 1573 1572 1571 1569 1567 1564 1561 1558 1555 1552 1550 1546 1542 1539 1535 1531 1527 1522 1517 1511 1507 1501 1496 1492 1487 1483 1478 1475
1495 1477 1482 1499 1506 1525 1525 1544 1545 1548 1553 1556 1556 1557 1559 1561 1565 1569 1571 1572 1573 1573 1573 1571 1570 1567 1564 1561 1557 1554 1552 1549 1546 1542 1539 1534 1530 1525 1520 1514 1510 1504 1499 1494 1489 1485 1481 1477 1472
1479 1470 1474 1487 1497 1508 1529 1532 1536 1544 1549 1548 1553 1555 1558 1560 1564 1568 1571 1573 1574 1574 1573 1572 1570 1567 1564 1561 1558 1555 1552 1549 1546 1542 1537 1532 1528 1523 1517 1512 1507 1502 1497 1492 1487 1482 1478 1474 1470
1467 1469 1471 1482 1494 1517 1507 1513 1539 1542 1531 1539 1548 1553 1557 1560 1563 1568 1570 1573 1574 1573 1573 1572 1570 1567 1565 1562 1558 1555 1552 1548 1544 1540 1535 1530 1525 1520 1514 1509 1504 1499 1494 1489 1484 1479 1474 1470 1465
1467 1483 1505 1506 1511 1521 1499 1515 1536 1532 1524 1531 1540 1549 1556 1560 1564 1568 1571 1573 1573 1573 1573 1572 1569 1567 1564 1561 1558 1555 1552 1548 1543 1539 1534 1528 1523 1517 1512 1507 1502 1496 1491 1485 1480 1475 1469 1465 1460
1469 1479 1502 1513 1518 1517 1502 1522 1532 1532 1527 1531 1541 1548 1556 1561 1565 1568 1571 1572 1573 1573 1573 1571 1569 1567 1564 1561 1559 1555 1552 1547 1542 1538 1532 1527 1521 1515 1510 1505 1499 1493 1488 1482 1477 1470 1465 1459 1454
1462 1473 1466 1486 1485 1509 1527 1532 1536 1537 1538 1537 1542 1551 1557 1562 1566 1569 1572 1571 1572 1573 1572 1571 1569 1567 1564 1562 1559 1555 1551 1545 1541 1536 1531 1525 1520 1514 1508 1503 1496 1490 1484 1478 1472 1465 1460 1453 1446
1450 1453 1479 1486 1500 1519 1519 1523 1521 1535 1540 1541 1543 1550 1557 1562 1566 1569 1570 1571 1572 1573 1572 1570 1568 1566 1564 1562 1558 1554 1549 1545 1540 1534 1529 1524 1518 1512 1506 1500 1493 1487 1481 1474 1467 1461 1454 1445 1436
1454 1458 1460 1470 1483 1509 1522 1515 1501 1520 1531 1537 1540 1547 1554 1561 1566 1568 1568 1571 1571 1572 1571 1570 1568 1566 1564 1561 1557 1553 1548 1544 1539 1533 1528 1522 1517 1511 1504 1498 1491 1484 1476 1470 1462 1456 1447 1437 1428
1438 1448 1454 1481 1480 1493 1501 1515 1506 1515 1526 1533 1537 1546 1554 1561 1565 1565 1566 1569 1570 1570 1570 1569 1567 1565 1563 1560 1556 1552 1547 1543 1537 1532 1527 1521 1516 1509 1502 1495 1488 1481 1473 1465 1457 1447 1439 1430 1423
Wind_Speed
3 5 2 2 4 5 2 6 6 16 16 15 20 14 14 16 4 6 19 12 14 12 9 5 7 3 6 4 4 9 6 8 10 10 11 11 11 11 10 12 13 14 15 15 16 16 17 17 18
3 6 3 3 5 4 2 8 11 16 30 8 12 8 13 7 9 21 21 19 15 11 7 5 6 5 6 5 5 6 8 8 9 10 11 11 11 10 12 15 16 15 15 16 17 18 19 19 19
8 3 3 4 3 3 4 5 4 18 30 18 2 7 6 6 14 13 21 19 14 10 8 9 8 5 4 3 3 3 7 9 9 10 11 12 12 14 14 15 15 15 18 20 20 20 21 20 19
5 3 2 4 5 6 10 9 19 22 22 14 7 6 6 9 13 18 19 15 13 11 13 10 6 1 1 2 7 8 9 10 11 12 13 13 13 14 14 17 19 21 23 23 22 20 20 20 18
3 3 3 2 6 7 15 27 43 22 9 17 16 9 5 8 17 18 17 15 14 15 12 7 3 1 4 7 7 8 10 11 13 15 14 15 16 17 20 20 24 23 25 24 24 16 17 16 16
1 1 3 2 5 10 18 26 18 25 18 6 10 9 5 20 19 19 16 15 12 9 8 3 4 6 7 9 10 11 12 12 15 17 16 18 20 20 19 21 25 23 24 25 25 16 19 18 20
4 3 4 3 4 7 7 24 9 13 13 5 13 4 13 23 20 17 18 14 11 9 9 12 11 8 10 12 13 13 13 14 15 14 15 20 20 15 17 16 19 21 20 22 21 17 19 19 17
3 3 0 3 1 3 12 12 12 10 5 7 4 7 9 23 20 20 17 17 16 14 13 11 9 9 9 9 11 11 13 13 10 13 14 16 18 18 18 18 18 16 17 21 18 13 15 16 18
4 2 3 3 6 5 18 4 8 9 12 7 4 15 29 27 23 22 20 18 15 13 8 5 4 5 6 11 13 10 9 8 7 8 15 17 21 23 24 24 20 18 16 13 11 13 18 23 23
3 2 3 3 5 6 7 10 9 7 10 13 26 30 30 28 26 23 21 19 13 11 8 4 3 4 5 5 6 8 7 8 5 9 11 16 21 26 25 19 18 17 17 14 16 18 21 23 21
2 4 6 5 24 20 12 13 7 19 10 12 30 32 30 27 23 22 20 19 18 15 13 8 3 2 5 4 4 9 10 9 9 13 18 20 24 27 27 24 20 15 14 15 19 21 22 23 20
3 11 11 18 18 14 7 10 12 16 14 23 26 26 26 22 18 16 23 23 20 17 9 3 2 4 6 5 7 9 13 15 15 18 17 23 27 28 29 22 19 14 17 20 23 25 20 18 20
2 4 13 20 23 21 29 19 21 23 25 22 19 19 14 16 16 25 26 23 18 12 4 2 3 6 10 11 11 11 12 14 17 17 21 25 26 28 26 25 18 13 18 22 23 16 18 20 22
1 18 26 28 30 17 26 19 7 17 22 20 22 24 20 24 28 28 23 18 12 6 2 3 7 10 9 9 9 10 10 12 12 15 20 24 25 28 25 27 19 15 20 23 15 18 19 22 26
5 9 8 16 13 11 32 15 13 23 24 23 26 26 27 27 25 22 18 13 6 3 9 9 11 10 7 7 10 6 9 9 15 18 21 23 27 28 28 29 23 20 25 21 20 22 24 23 18
5 6 6 11 15 18 8 9 12 21 26 21 22 22 22 20 19 15 11 8 9 10 11 11 9 7 2 5 8 8 9 11 13 13 15 20 23 25 27 29 25 24 26 27 28 28 21 20 20
5 3 2 5 7 7 2 12 17 20 24 17 16 17 17 18 16 13 11 11 14 10 9 6 11 11 8 10 10 9 6 9 8 12 14 17 22 22 23 23 25 26 26 29 32 25 21 23 22
7 3 4 6 5 8 11 12 15 16 19 16 14 14 15 14 14 14 16 18 12 9 6 9 15 17 15 11 11 6 4 6 9 12 16 20 24 22 23 23 24 26 31 33 28 22 20 22 26
3 4 4 7 7 8 14 15 12 13 13 13 13 12 12 13 14 16 19 16 12 7 5 10 17 21 20 17 14 8 8 9 11 15 19 21 20 22 22 25 28 31 32 29 22 24 26 27 28
7 7 4 8 3 11 14 12 10 11 7 13 14 13 13 15 15 18 18 14 10 4 6 12 18 21 23 18 16 13 11 10 12 16 18 23 21 20 26 28 30 29 33 25 24 24 25 26 26
9 8 8 7 10 12 17 4 5 4 8 9 9 11 15 17 17 18 15 11 9 2 8 13 16 17 22 20 18 16 14 13 17 21 23 25 22 24 26 29 27 32 28 27 25 23 25 27 26
9 8 7 16 7 5 9 4 8 8 8 11 13 14 16 18 17 18 14 11 9 4 9 11 13 16 21 22 21 18 19 19 20 21 23 23 25 27 27 26 27 28 27 25 24 25 25 24 22
12 9 7 13 6 7 4 4 2 11 8 13 16 16 18 20 21 18 14 12 9 4 9 10 11 15 18 21 20 17 19 18 20 22 24 24 27 27 26 27 25 26 25 25 25 25 27 25 25
8 4 1 4 5 3 9 6 3 5 8 15 18 18 21 20 22 17 9 16 7 3 10 9 10 12 15 21 18 16 21 20 20 23 23 27 28 27 27 25 24 24 24 24 26 26 26 29 29
4 5 3 2 2 4 4 6 3 9 5 16 24 23 23 23 24 15 22 13 1 5 8 8 11 12 16 19 18 16 19 22 19 21 24 27 27 28 26 25 25 25 25 27 28 28 28 28 27
8 8 6 5 4 5 6 2 1 8 17 26 24 27 25 26 21 14 20 6 4 6 4 11 12 12 16 15 15 15 19 21 19 21 25 24 26 27 25 26 26 27 27 28 31 31 30 26 32
6 6 8 5 3 5 2 4 3 9 12 22 24 22 25 26 16 19 17 4 5 5 5 8 11 13 13 12 14 16 23 18 19 24 22 24 26 25 26 28 28 29 28 31 35 33 30 35 41
10 6 2 2 5 3 3 3 3 12 14 14 20 21 25 23 17 21 11 4 3 2 3 7 12 12 9 12 14 19 20 17 20 22 22 25 25 25 27 29 30 31 31 32 34 32 37 43 43
2 2 2 4 5 5 4 5 6 17 18 17 22 23 27 23 26 19 8 7 3 2 2 8 12 9 9 13 16 19 19 18 22 21 23 24 23 25 27 28 30 30 31 34 33 37 42 37 34
10 10 7 5 3 3 4 2 9 18 24 24 24 26 28 24 25 17 13 8 6 2 4 8 10 8 10 13 15 18 18 19 21 22 23 22 23 25 27 28 29 32 36 34 38 45 45 36 29
Wind_Direction
80 139 102 46 55 56 27 312 342 6 9 50 52 79 83 51 8 130 152 159 156 144 156 167 183 163 120 128 102 93 82 59 60 53 45 34 23 25 8 6 358 352 351 355 354 349 339 336 333
108 153 70 84 79 48 43 337 346 24 340 190 21 4 49 68 82 129 146 154 154 141 152 151 172 148 149 148 113 94 72 57 46 36 28 24 23 18 358 355 351 349 349 345 341 336 333 329 328
113 130 91 96 111 136 158 157 330 14 352 345 11 17 63 100 128 144 152 150 145 137 149 156 149 155 168 155 125 56 50 43 37 26 17 9 3 359 358 357 354 352 349 345 339 333 330 328 326
144 142 92 102 163 199 154 151 105 68 1 267 180 92 79 138 155 150 154 148 144 151 151 154 156 145 267 132 64 54 43 32 21 13 7 3 3 0 355 1 1 352 351 351 346 340 337 334 332
180 136 71 149 250 113 117 129 126 128 225 244 226 122 76 119 156 146 147 153 158 154 160 159 145 35 46 63 59 48 35 26 20 13 12 8 3 357 352 356 0 352 350 351 350 349 349 348 346
148 180 83 228 267 95 136 155 144 153 177 176 97 93 100 150 152 150 153 155 158 156 159 122 83 80 73 57 44 33 32 29 17 15 3 357 357 353 353 352 353 348 345 347 348 346 357 352 345
155 101 214 184 107 147 153 158 168 167 149 98 139 91 140 155 157 153 151 143 112 89 101 103 95 71 70 46 37 27 19 15 7 6 359 0 357 359 350 350 332 331 332 338 339 343 348 346 339
224 111 98 283 41 98 163 173 105 101 84 136 127 177 162 167 158 146 137 115 95 95 100 102 92 76 63 43 24 17 13 11 1 0 353 347 342 336 332 322 331 342 335 333 322 332 328 336 328
222 60 276 246 152 134 144 121 64 66 94 73 102 146 155 155 145 139 133 125 117 112 104 77 62 53 24 22 26 14 18 8 345 348 331 328 326 324 317 317 302 307 315 328 333 315 318 317 317
104 118 282 208 126 127 115 126 119 80 88 78 98 129 139 142 140 140 139 142 142 144 138 134 66 0 2 6 355 349 3 10 11 336 330 329 329 327 332 322 313 311 306 321 323 317 313 312 311
232 224 135 57 123 127 104 65 89 115 59 120 126 136 141 143 145 144 145 147 153 158 150 155 166 254 294 327 341 344 350 355 335 321 314 326 321 327 332 331 327 318 305 322 321 319 320 313 307
297 17 125 154 123 111 84 97 73 81 113 129 128 134 142 152 161 166 158 160 153 153 144 152 228 288 347 19 333 329 323 333 324 316 325 325 330 333 337 337 333 314 311 317 316 318 319 314 315
193 118 69 119 119 93 108 93 100 102 127 130 133 139 143 148 156 152 159 158 159 160 141 268 326 21 26 5 347 338 338 334 336 326 331 336 342 343 344 346 340 307 312 319 327 332 326 322 315
17 122 120 112 119 128 114 120 90 122 129 121 127 128 137 139 143 147 152 148 145 150 235 29 29 30 30 0 355 351 348 341 337 338 342 341 340 339 349 349 346 321 325 333 326 328 324 317 314
345 110 152 169 147 133 110 65 97 128 136 120 121 126 131 136 142 144 141 135 124 99 65 51 42 8 13 10 357 35 3 345 344 345 342 336 339 347 347 348 350 344 337 329 321 315 312 313 319
2 107 154 202 183 177 38 134 134 144 142 126 131 133 136 138 143 136 130 134 108 86 67 44 13 355 347 351 351 355 9 6 356 353 340 339 345 342 345 343 347 337 335 335 332 329 318 318 320
0 242 307 148 185 122 166 139 153 155 148 135 143 146 145 144 146 140 130 110 92 80 62 34 10 9 323 322 335 337 343 0 7 348 348 346 341 341 342 338 335 335 330 329 328 326 318 321 322
222 249 237 170 202 62 105 126 139 149 141 143 152 152 152 151 147 133 116 110 109 102 72 359 359 9 1 342 344 0 347 10 351 341 339 335 333 334 335 336 334 329 328 329 331 327 322 322 321
209 272 287 42 94 69 110 126 131 134 132 144 157 156 151 153 144 135 124 119 122 108 0 351 356 6 2 1 3 1 346 333 326 326 327 332 336 333 336 333 330 331 334 336 333 328 328 324 326
251 261 122 81 52 87 131 115 128 155 172 171 165 165 165 156 144 138 134 128 135 129 356 355 2 1 2 7 12 5 354 329 334 334 342 347 345 335 336 336 336 340 342 344 340 339 338 334 336
240 219 198 164 103 72 127 102 151 185 148 150 170 179 170 161 150 148 140 152 144 131 359 0 357 354 360 5 3 4 4 0 354 350 348 348 351 346 345 339 340 340 347 348 345 342 340 335 332
259 218 191 143 153 182 219 148 196 174 170 176 169 178 171 160 151 150 151 158 139 54 13 8 355 356 355 0 358 2 2 358 352 346 347 350 350 346 343 343 340 343 347 346 345 345 340 336 332
253 267 222 177 154 113 210 93 159 166 199 186 183 179 176 160 154 155 155 163 132 62 359 2 352 349 354 352 354 358 358 356 353 352 349 348 347 346 346 344 345 346 347 345 341 337 337 334 326
246 277 50 79 117 83 200 152 163 191 224 178 174 169 170 162 155 153 171 162 135 38 343 352 350 353 352 349 355 358 358 355 350 348 347 345 344 345 347 348 347 348 346 341 337 334 331 328 323
163 73 302 314 346 186 156 78 130 321 259 172 159 160 171 160 158 150 161 165 286 4 322 348 348 345 348 347 3 357 351 351 348 347 344 342 345 348 350 350 347 346 341 338 338 332 329 322 313
205 158 172 202 192 148 351 118 47 45 97 135 145 155 163 163 165 164 173 171 289 309 334 343 344 338 342 1 359 349 345 346 348 348 346 348 349 350 353 349 346 344 340 338 337 336 333 318 318
229 215 173 158 130 88 149 97 128 111 107 124 134 153 167 168 166 170 157 183 286 311 326 343 347 342 353 358 347 346 345 349 353 350 351 351 351 353 351 350 347 345 343 339 341 338 326 321 324
187 163 145 0 171 116 218 218 215 166 150 150 148 162 169 167 161 159 156 219 235 250 356 351 349 350 1 347 347 345 351 355 353 354 354 353 354 353 354 351 348 345 343 339 337 329 325 326 329
147 180 122 130 142 149 155 254 180 167 167 166 159 164 168 166 168 168 190 161 199 180 350 345 343 7 355 348 346 349 356 356 353 356 357 356 356 355 351 348 347 347 342 339 330 326 330 338 335
204 197 157 132 199 84 123 193 125 149 163 160 153 159 165 169 175 165 163 174 178 195 324 334 356 6 354 350 348 354 357 355 356 357 359 357 355 353 352 350 347 346 343 340 335 343 347 347 341